Location: Al Mulaqqa?ah
(24.1833°N, 32.8833°E)
Time: 01:44:18
(UTC+00:00)

Cosmos 1346 Rocket - Pass Details

Date: 26 September 2021
Orbit: 529 x 547 km, 81.2° (Epoch: 15 October)

Event Time Altitude Azimuth Distance (km) Brightness Sun altitude
Rises 17:13:45 0° 354° (N) 2,711 6.5 -22.0°
Reaches altitude 10° 17:15:55 10° 355° (N) 1,816 5.6 -22.5°
Enters shadow 17:19:11 58° 2° (N) 638 3.0 -23.2°
